Regional Weather Roundup
Issued by NWS

Home | Current Version | Previous Version | Text Only | Print | Product List | Glossary On
Versions: 1 2 3 4 5 6 7 8 9 10 11 12 13 14 15 16 17 18 19 20 21 22 23 24 25 26 27 28 29 30 31 32 33 34 35 36 37 38 39 40 41 42 43 44 45 46 47 48 49 50
000
ASUS43 KMPX 252301
RWRMN
WEATHER ROUNDUP FOR MINNESOTA
NATIONAL WEATHER SERVICE TWIN CITIES/CHANHASSEN MN
600 PM CDT SAT JUN 25 2016


NOTE: "FAIR" INDICATES FEW OR NO CLOUDS BELOW 12,000 FEET WITH NO
SIGNIFICANT WEATHER AND/OR OBSTRUCTIONS TO VISIBILITY. N/A MEANS
CURRENT SKY AND/OR WEATHER CONDITIONS ARE NOT AVAILABLE.

MNZ060>063-068>070-260000-
   Twin Cities Metro

CITY           SKY/WX    TMP DP  RH WIND       PRES   REMARKS
TWIN CITIES    CLOUDY    92  70  48 SW28G40   29.69S HX  97
ST PAUL        CLOUDY    90  70  51 SW18G37   29.69R HX  95
CRYSTAL        PTSUNNY   90  68  48 SW22G43   29.67R THUNDER HX  94
LAKEVILLE      CLOUDY    88  70  55 SW8G28    29.73S HX  92
EDEN PRAIRIE   PTSUNNY   90  70  51 SW22G35   29.69R HX  95
LAKEVILLE      CLOUDY    88  70  55 SW8G28    29.73S HX  92
SOUTH ST PAUL  PTSUNNY   90  68  48 SW18G31   29.70S HX  94
LAKE ELMO      PTSUNNY   90  70  51 SW22G32   29.72R HX  95
$$
MNZ001>005-007-008-013>017-022>024-027-028-260000-
   Northwest Minnesota

CITY           SKY/WX    TMP DP  RH WIND       PRES   REMARKS
BEMIDJI        CLOUDY    77  67  70 W9        29.69R
HALLOCK        MOSUNNY   77  48  36 W21       29.65S
ROSEAU         MOSUNNY   77  66  69 W14G23    29.61R
WARROAD        PTSUNNY   79  70  73 W12G23    29.60R
CROOKSTON      SUNNY     81  52  36 W24G30    29.69R
FOSSTON        MOSUNNY   81  57  44 W17G29    29.69R
DETROIT LAKES  SUNNY     82  54  36 NW24G30   29.73R
MOORHEAD       SUNNY     82  48  30 W20G26    29.72R
PARK RAPIDS    MOSUNNY   80  64  58 W12G23    29.71R
MAHNOMEN       FAIR      79  57  47 W17G29    29.70R
$$
MNZ006-009>011-018-025>026-260000-
   North Central Minnesota

CITY           SKY/WX    TMP DP  RH WIND       PRES   REMARKS
BAUDETTE       CLOUDY    76  67  73 W14       29.60R
FLAG ISLAND    CLOUDY    73  66  78 NW6       29.57S
INTL FALLS     CLOUDY    75  69  81 W14G24    29.60R
WASKISH          N/A     75  70  83 W14       29.64R
BIG FORK       CLOUDY    72  66  83 S8        29.63S
LONGVILLE      CLOUDY    75  68  78 SE6       29.66R
CRANE LAKE     TSTM      66  64  94 S5        29.66R
ORR            LGT RAIN  68  64  88 CALM      29.66R
COOK           CLOUDY    68  66  94 CALM      29.66R
WALKER         FAIR      78  67  68 W14G23    29.68R
$$
MNZ012-019>021-037-260000-
   Northeast Minnesota

CITY           SKY/WX    TMP DP  RH WIND       PRES   REMARKS
DULUTH         TSTM      70  67  90 SW17G23   29.73S
ELY            CLOUDY    70  66  88 SE9       29.69S
HIBBING        CLOUDY    67  65  93 VRB5      29.66F
EVELETH        CLOUDY    70  68  94 S3        29.67F
DULUTH HARBOR  TSTM      64  63  94 S7        29.74R
TWO HARBORS    TSTM      72  66  83 NW9G22    29.70R
SILVER BAY     TSTM      66  64  94 N3        29.70R
GRAND MARAIS     N/A     67  61  81 VRB6      29.70F
G MARAIS ARPRT CLOUDY    64  59  82 E10       29.76F
$$
MNZ029>031-032-039>041-046>048-054>057-064-260000-
   West Central Minnesota

CITY           SKY/WX    TMP DP  RH WIND       PRES   REMARKS
FERGUS FALLS   CLOUDY    82  57  42 NW18G26   29.69R
WHEATON        MOSUNNY   86  57  37 W8G22     29.78R
MORRIS         SUNNY     81  63  54 W15       29.77R
ALEXANDRIA     SUNNY     81  62  52 W15G25    29.77R
ELBOW LAKE     FAIR      82  64  53 NW20G26   29.76R
WADENA         SUNNY     81  64  57 W9        29.72R
GLENWOOD       SUNNY     81  64  57 W18G25    29.78R
APPLETON       MOSUNNY   84  57  39 W13       29.79R
BENSON         MOSUNNY   82  61  47 NW15      29.79R
ORTONVILLE     MOSUNNY   84  57  39 SW10G16   29.80R
MADISON        CLOUDY    82  57  42 W14G20    29.81S
WILLMAR        FAIR      82  70  65 W20G30    29.79R
$$
MNZ033>034-036-042>043-049>051-058-059-260000-
   Central Minnesota

CITY           SKY/WX    TMP DP  RH WIND       PRES   REMARKS
ST CLOUD       CLOUDY    77  74  90 W14       29.69S
SAUK CENTRE    FAIR      79  68  68 W20G29    29.74S
PAYNESVILLE    CLOUDY    81  69  66 W24       29.75F
AITKIN         CLOUDY    73  66  78 CALM      29.66F
PINE RIVER     CLOUDY    81  72  74 W14G25    29.71R
BRAINERD       CLOUDY    77  73  87 W13       29.66F
STAPLES        CLOUDY    81  64  57 W21       29.72R
LONG PRAIRIE   FAIR      79  68  69 SW15G22   29.74S
LITTLE FALLS   CLOUDY    81  66  61 W17G30    29.70S
LITCHFIELD     CLOUDY    79  73  83 W16G26    29.76R
BUFFALO        CLOUDY    82  73  75 W16G23    29.72R
MAPLE LAKE     CLOUDY    80  75  86 SW14G21   29.72R
HUTCHINSON     RAIN      78  74  88 SW14G23   29.76R
$$
MNZ037-044-045-052-053-260000-
   East Central Minnesota

CITY           SKY/WX    TMP DP  RH WIND       PRES   REMARKS
PRINCETON      TSTM      73  72  94 SW6       29.68R
MORA           TSTM      72  68  88 W22G36    29.72R
CAMBRIDGE      TSTM      73  66  78 W21G39    29.75R
RUSH CITY      TSTM      80  70  70 W21G35    29.76R
MOOSE LAKE     TSTM      68  64  88 S9G26     29.71F
HINCKLEY       HVY RAIN  72  72 100 W18G32    29.76R VSB 1/2
CLOQUET        TSTM      66  64  94 S14       29.71F
MCGREGOR       CLOUDY    70  66  88 SE12      29.68F
$$
MNZ071>073-080-081-089-090-097-098-260000-
   Southwest Minnesota

CITY           SKY/WX    TMP DP  RH WIND       PRES   REMARKS
MONTEVIDEO     CLOUDY    84  64  51 NW15      29.81R
GRANITE FALLS  CLOUDY    86  69  55 W21G28    29.79F HX  90
CANBY          CLOUDY    84  61  45 NW13      29.83F
MARSHALL       CLOUDY    83  68  60 NW20      29.79F
REDWOOD FALLS  PTSUNNY   78  69  73 W10       29.76F
OLIVIA         LGT RAIN  77  68  73 W10       29.76F
PIPESTONE      MOSUNNY   82  64  54 NW17G25   29.85S
WINDOM         CLOUDY   N/A N/A N/A SW7       29.83R
WORTHINGTON    CLOUDY    78  67  68 SW10      29.87R
JACKSON        CLOUDY    82  68  61 W9        29.85F
TRACY          CLOUDY    80  70  71 W8G16     29.80S
SLAYTON        HVY RAIN  80  67  66 W13G20    29.85R
$$
MNZ065>067-074>077-082>085-091>093-260000-
   South Central Minnesota

CITY           SKY/WX    TMP DP  RH WIND       PRES   REMARKS
MANKATO        PTSUNNY   88  70  55 SW16G25   29.77S HX  92
NEW ULM        CLOUDY    84  68  58 W16G28    29.78R
ST JAMES       LGT RAIN  79  66  65 SW14      29.81R
FAIRMONT       PTSUNNY   84  70  61 W18G29    29.83R
GLENCOE        CLOUDY    86  75  69 SW14G28   29.74R HX  94
FARIBAULT      CLOUDY    90  72  55 S18G29    29.77S HX  96
OWATONNA       CLOUDY    88  68  51 S21G35    29.79F HX  91
WASECA         CLOUDY    86  68  54 SW24G30   29.80S
ALBERT LEA     SUNNY     88  66  48 SW15G26   29.82S HX  90
$$
MNZ078>079-086>088-094>096-260000-
   Southeast Minnesota

CITY           SKY/WX    TMP DP  RH WIND       PRES   REMARKS
ROCHESTER      MOSUNNY   87  72  60 S24G36    29.82F HX  93
RED WING       CLOUDY    91  68  46 SW21G29   29.72F HX  95
STANTON        CLOUDY    89  69  51 SW22G36   29.73S HX  93
DODGE CENTER   MOSUNNY   88  66  48 SW24G32   29.82R HX  90
WINONA         SUNNY     90  70  51 S10G25    29.79S HX  95
AUSTIN         MOSUNNY   88  66  48 SW18G30   29.83F HX  90
PRESTON        MOSUNNY   86  70  58 S17G30    29.86R HX  90
$$
ABBREVIATIONS USED IN REMARKS
   TC - TEMPERATURES IN CELSIUS
  WCI - WIND CHILL INDEX
   HX - HEAT INDEX
  VSB - VISIBILITY
$$




USA.gov is the U.S. government's official web portal to all federal, state and local government web resources and services.